Погода в Северном

Россия / Республика Калмыкия     45°22′10″N   47°19′54″E
темп.,
°C
ветер,
м/с
пор.,
м/с
влажн.,
%
обл.,
%
осадки,
мм/ч
давл.,
гПа
погр.,
м
6 мая, чт
чт600:00+14юз3548100 0.0 1018106
03:00+13юз2254100 0.0 101843
06:00+14всв115190 0.0 101978
09:00+18вюв554112 0.0 10181279
12:00+19вюв66390 0.0 10181623
15:00+19юв66390 0.0 10161375
18:00+17юв66500 0.0 1017981
21:00+15вюв57605 0.0 1018392
7 мая, пт
пт700:00+14юв34638 0.0 1017137
03:00+13вюв336394 0.0 1017119
06:00+14вюв2355100 0.0 1017235
09:00+17юв334398 0.0 1018922
12:00+19ююв43365 0.0 10181243
15:00+19ююв54375 0.0 10181006
18:00+17ю66462 0.0 1018451
21:00+15ю576126 0.0 1019259
8 мая, сб
сб800:00+15ю476495 0.0 1019165
03:00+14ююз34720 0.0 101890
06:00+15ю35698 0.0 1019213
09:00+19ююв55495 0.0 1019600
12:00+20юв664328 0.0 1018676
15:00+19юв78435 0.0 1017592
18:00+17юв7950100 0.0 1017452
21:00+16юв61062100 0.0 1016393
9 мая, вс
вс900:00+16юв6106982 0.0 1015378
03:00+15вюв712715 0.0 1013391
06:00+17вюв915657 0.0 1011657
09:00+19юв1116645 0.0 1010800
12:00+20юв10156374 0.0 1010906
15:00+19юв71065100 0.0 1010749
18:00+17юв5672100 0.0 1010555
21:00+16з5880100 0.5 1011571
10 мая, пн
пн1000:00+10зсз121882100 5.0 1015781
03:00+9зсз101681100 5.9 1016795
06:00+10з111575100 0.4 10181115
09:00+10з101370100 0.7 10181156
12:00+11зсз91263100 0.3 10191367
15:00+15ссз584677 0.8 10181606
18:00+16всв124759 0.0 1018166
21:00+13ююв44620 0.0 1020128